Home > Weather > Bern > Past weeks

Flag for Switzerland Weather for the Past 2 Weeks in Bern, Bern, Switzerland

Now
36 °F

Partly cloudy.


Feels Like: 31 °F
Forecast: 36 / 43 °F
Wind: 6 mph from South

Location: Bern / Belp

Current Time: Feb 12, 2016 at 9:43:36 PM

Latest Report: Feb 12, 2016 at 9:20 PM


Visibility: N/A

Pressure: 29.36 "Hg (27.48 "Hg at 533m altitude)

Humidity: 93%

Dew point: 34 °F

Location of BernLocation

Historic Weather in Bern — Graph

°F

Bern Temperature Yesterday

Maximum temperature yesterday: 41 °F (at 1:50 PM)
Minimum temperature yesterday: 25 °F (at 7:20 AM)
Average temperature yesterday: 34 °F

High & Low Weather Summary for the Past Weeks

 TemperatureHumidityPressure
High59 °F (Feb 1, 11:50 AM)100% (Jan 29, 2:50 AM)30.48 "Hg (Jan 29, 2:50 AM)
Low25 °F (Feb 11, 7:20 AM)50% (Feb 9, 3:50 AM)29.36 "Hg (Feb 12, 2:20 PM)
Average41 °F85%30.03 "Hg
* Reported Jan 28 8:20 PM — Feb 12 8:20 PM, Bern, Weather by CustomWeather, © 2016

Note: Actual official high and low records may vary slightly from our data, if they occured in-between our weather recording intervals... More about our weather records

Advertising

Bern Weather History for the Previous 24 Hours

 ConditionsComfort  
Time TempWeatherWind HumidityBarometerVisibility
8:20 PM
Fri, Feb 12
34 °FSnow flurries. Partly cloudy.3 mph100%29.36 "Hg3 mi
7:50 PM34 °FPassing clouds.2 mph100%29.36 "Hg5 mi
7:20 PM32 °FLight snow. Mostly cloudy.2 mph100%29.39 "Hg2 mi
6:50 PM32 °FSnow flurries. Partly cloudy.7 mph100%29.39 "Hg2 mi
6:20 PM32 °FPassing clouds.3 mph100%29.36 "Hg1 mi
5:50 PM32 °FLight snow. Dense fog.3 mph100%29.36 "Hg1 mi
5:20 PM32 °FSnow. Dense fog.3 mph100%29.36 "Hg1 mi
4:50 PM32 °FSnow. Dense fog.3 mph100%29.36 "Hg1 mi
4:20 PM32 °FSnow. Dense fog.2 mph100%29.36 "Hg1 mi
3:50 PM32 °FSnow. Dense fog.2 mph100%29.36 "Hg1 mi
3:20 PM32 °FSnow. Dense fog.No wind100%29.36 "Hg1 mi
2:50 PM34 °FLight snow. Partly sunny.2 mph93%29.36 "Hg1 mi
2:20 PM36 °FLight rain. Broken clouds.5 mph87%29.36 "Hg2 mi
1:50 PM37 °FPartly sunny.5 mph87%29.39 "HgN/A
1:20 PM37 °FPassing clouds.5 mph87%29.42 "HgN/A
12:50 PM37 °FPassing clouds.5 mph87%29.45 "HgN/A
12:20 PM37 °FPartly sunny.2 mph81%29.47 "HgN/A
11:50 AM37 °FPartly sunny.2 mph87%29.50 "HgN/A
11:20 AM36 °FPartly sunny.5 mph87%29.50 "HgN/A
10:50 AM36 °FPartly sunny.3 mph87%29.53 "HgN/A
10:20 AM34 °FPartly sunny.3 mph93%29.53 "HgN/A
9:50 AM34 °FScattered clouds.5 mph93%29.56 "HgN/A
9:20 AM32 °FScattered clouds.7 mph100%29.56 "HgN/A
8:50 AM30 °FScattered clouds.6 mph100%29.59 "HgN/A
8:20 AM30 °FScattered clouds.5 mph100%29.59 "Hg6 mi
7:50 AM32 °FScattered clouds.5 mph100%29.62 "Hg6 mi
7:20 AM30 °FPartly cloudy.5 mph100%29.65 "Hg4 mi
6:50 AM30 °FPartly cloudy.5 mph100%29.65 "HgN/A
6:20 AM32 °FPassing clouds.5 mph100%29.65 "HgN/A
5:50 AM32 °FPassing clouds.5 mph100%29.68 "HgN/A
5:20 AM32 °FMostly cloudy.3 mph100%29.68 "Hg4 mi
4:50 AM32 °FPassing clouds.5 mph100%29.68 "Hg4 mi
4:20 AM32 °FPartly cloudy.5 mph100%29.68 "Hg4 mi
3:50 AM32 °FPartly cloudy.3 mph100%29.71 "Hg4 mi
3:20 AM32 °FPassing clouds.2 mph100%29.71 "Hg4 mi
2:50 AM32 °FPartly cloudy.3 mph100%29.71 "Hg4 mi
2:20 AM32 °FPartly cloudy.2 mph100%29.71 "Hg3 mi
1:50 AM32 °FMostly cloudy.3 mph100%29.71 "Hg4 mi
1:20 AM32 °FLight snow. Passing clouds.3 mph100%29.71 "Hg2 mi
12:50 AM32 °FSnow. Partly cloudy.2 mph100%29.71 "Hg1 mi
12:20 AM32 °FLight snow. Low clouds.2 mph100%29.74 "Hg1 mi
11:50 PM
Thu, Feb 11
34 °FSprinkles. Fog.3 mph100%29.74 "Hg1 mi
10:50 PM34 °FLight snow. Passing clouds.1 mph93%29.74 "Hg5 mi
10:20 PM34 °FLight snow. Passing clouds.2 mph93%29.74 "Hg4 mi
9:50 PM34 °FSnow flurries. Partly cloudy.3 mph93%29.74 "HgN/A
9:20 PM36 °FPassing clouds.2 mph87%29.74 "HgN/A
Weather by CustomWeather, © 2016

See weather overviewHow to use our weather pages